Home > Weather > Buffalo > Past weeks

Flag for U.S.A. Weather for the Past 2 Weeks in Buffalo, New York, U.S.A.

Now
11 °F

Light snow. Partly sunny.


Feels Like: -7 °F
Forecast: 11 / 16 °F
Wind: 18 mph from Northwest

Location: Greater Buffalo International Airport

Current Time: Feb 11, 2016 at 12:15:49 PM

Latest Report: Feb 11, 2016 at 10:54 AM


Visibility: 10 mi

Pressure: 30.07 "Hg

Humidity: 59%

Dew point: -1 °F

Location of BuffaloLocation

Historic Weather in Buffalo — Graph

°F

Buffalo Temperature Yesterday

Maximum temperature yesterday: 31 °F (at 12:54 AM)
Minimum temperature yesterday: 14 °F (at 11:54 PM)
Average temperature yesterday: 24 °F

High & Low Weather Summary for the Past Weeks

 TemperatureHumidityPressure
High61 °F (Feb 3, 2:54 PM)96% (Feb 9, 1:54 AM)30.36 "Hg (Feb 9, 1:54 AM)
Low7 °F (Feb 11, 7:54 AM)43% (Feb 8, 12:54 PM)29.49 "Hg (Jan 31, 11:54 PM)
Average35 °F71%29.88 "Hg
* Reported Jan 27 10:54 AM — Feb 11 10:54 AM, Buffalo, Weather by CustomWeather, © 2016

Note: Actual official high and low records may vary slightly from our data, if they occured in-between our weather recording intervals... More about our weather records

Advertising

Buffalo Weather History for the Previous 24 Hours

 ConditionsComfort  
Time TempWeatherWind HumidityBarometerVisibility
10:54 AM
Thu, Feb 11
11 °FLight snow. Partly sunny.18 mph59%30.07 "Hg10 mi
9:54 AM10 °FPartly sunny.14 mph64%30.05 "Hg10 mi
8:54 AM8 °FPartly sunny.12 mph66%30.02 "Hg10 mi
7:54 AM7 °FPartly sunny.15 mph70%29.99 "Hg10 mi
6:54 AM8 °FLight snow. Partly cloudy.15 mph66%29.97 "Hg9 mi
5:54 AM9 °FPartly cloudy.16 mph64%29.94 "Hg10 mi
5:01 AM10 °FOvercast.16 mph67%29.87 "Hg8 mi
3:54 AM11 °FLight snow. Passing clouds.17 mph61%29.87 "Hg10 mi
2:54 AM13 °FPassing clouds.16 mph70%29.86 "Hg10 mi
1:54 AM13 °FPassing clouds.13 mph70%29.84 "Hg10 mi
12:54 AM14 °FPassing clouds.12 mph67%29.85 "Hg10 mi
11:54 PM
Wed, Feb 10
14 °FPassing clouds.12 mph71%29.85 "Hg10 mi
10:54 PM15 °FPartly cloudy.13 mph67%29.85 "Hg10 mi
9:54 PM16 °FMostly cloudy.17 mph67%29.84 "Hg10 mi
8:54 PM16 °FLight snow. Mostly cloudy.20 mph71%29.83 "Hg9 mi
7:54 PM17 °FLight snow. Mostly cloudy.17 mph74%29.81 "Hg9 mi
6:54 PM18 °FLight snow. Overcast.16 mph71%29.80 "Hg9 mi
5:54 PM20 °FLight snow. Mostly cloudy.20 mph71%29.77 "Hg7 mi
4:54 PM22 °FMore clouds than sun.20 mph72%29.74 "Hg10 mi
3:54 PM24 °FLight snow. Cloudy.17 mph71%29.72 "Hg10 mi
2:54 PM25 °FLight snow. More clouds than sun.20 mph72%29.68 "Hg9 mi
1:54 PM26 °FPartly sunny.17 mph69%29.66 "Hg10 mi
12:54 PM26 °FLight snow. More clouds than sun.16 mph74%29.66 "Hg10 mi
Weather by CustomWeather, © 2016

See weather overviewHow to use our weather pages